Location: Unspecified
(0.0000°N, 0.0000°E)
Time: 04:32:49
(UTC+00:00)

SR - All Passes

Search period start: 21 April 2014 00:00
Search period end: 01 May 2014 00:00
Orbit: 581 x 886 km, 66.7° (Epoch: 19 April)

Date Brightness Start Highest point End Pass type
(mag) Time Alt. Az. Time Alt. Az. Time Alt. Az.
21 Apr - 09:48:59 10° SSW 09:53:13 73° ESE 09:57:25 10° NNE daylight
21 Apr - 20:34:57 10° NE 20:38:02 15° ENE 20:41:09 10° ESE night (unlit)
21 Apr - 22:14:25 10° NW 22:20:01 46° WSW 22:25:40 10° S night (unlit)
22 Apr - 09:01:47 10° SSE 09:05:14 24° ESE 09:08:38 10° NE daylight
22 Apr - 10:45:29 10° W 10:47:04 12° WNW 10:48:39 10° NW daylight
22 Apr - 21:26:08 10° NNW 21:32:00 79° ENE 21:37:56 10° SSE night (unlit)
23 Apr - 09:55:14 10° SW 09:59:04 34° WNW 10:02:53 10° N daylight
23 Apr - 20:38:43 10° N 20:43:59 35° ENE 20:49:19 10° SE visible
23 Apr - 22:21:50 10° WNW 22:25:59 20° WSW 22:30:08 10° SSW night (unlit)
24 Apr - 09:06:50 10° SSW 09:11:05 77° ESE 09:15:17 10° NNE daylight
24 Apr - 19:52:41 10° NE 19:55:57 15° ENE 19:59:14 10° ESE visible
24 Apr - 21:32:21 10° NW 21:37:56 44° WSW 21:43:32 10° S visible
25 Apr - 08:19:34 10° SSE 08:23:05 25° ESE 08:26:33 10° NE daylight
25 Apr - 10:03:37 10° W 10:04:55 11° WNW 10:06:14 10° NW daylight
25 Apr - 20:44:00 10° NNW 20:49:54 82° ENE 20:55:50 10° SSE visible
26 Apr - 09:13:07 10° SW 09:16:54 32° WNW 09:20:41 10° N daylight
26 Apr - 19:56:32 10° N 20:01:52 36° ENE 20:07:14 10° SE visible
26 Apr - 21:39:50 10° WNW 21:43:51 19° WSW 21:47:53 10° SSW visible
27 Apr - 08:24:40 10° SSW 08:28:54 81° ESE 08:33:07 10° NNE daylight
27 Apr - 19:10:22 10° NE 19:13:49 16° ENE 19:17:15 10° ESE visible
27 Apr - 20:50:15 10° NW 20:55:48 42° WSW 21:01:21 10° S visible
28 Apr - 07:37:20 10° SSE 07:40:54 26° ESE 07:44:26 10° NE daylight
28 Apr - 09:21:46 10° W 09:22:44 11° WNW 09:23:43 10° NW daylight
28 Apr - 20:01:51 10° NNW 20:07:45 85° ENE 20:13:40 10° SSE visible
29 Apr - 08:30:58 10° SW 08:34:41 31° WNW 08:38:26 10° N daylight
29 Apr - 19:14:19 10° N 19:19:42 37° ENE 19:25:07 10° SE visible
29 Apr - 20:57:47 10° WNW 21:01:41 18° WSW 21:05:35 10° SSW visible
30 Apr - 07:42:27 10° SSW 07:46:41 85° ESE 07:50:54 10° NNE daylight
30 Apr - 18:28:03 10° NNE 18:31:38 17° ENE 18:35:13 10° ESE visible
30 Apr - 20:08:06 10° NW 20:13:37 41° WSW 20:19:07 10° S visible
